Hourly Data Report for May 19, 2022

TORONTO CITY
ONTARIO
Current Station Operator: ECCC - MSC

43°40'00.000" N
79°24'00.000" W
112.50 m
6158355
71508
XTO

Download Data

Hourly Data (May 2022)
Hourly Data Report for May 19, 2022
TIME
LST
Temp Definition
°C
Dew Point Definition
°C
Rel Hum Definition
%
Precip. Amount Definition
mm

Wind Dir Definition
10's deg

Wind Spd Definition
km/h
Visibility Definition
km
Stn Press Definition
kPa
Hmdx Definition


Wind Chill Definition


Weather Definition


00:00 11.3 3.2 57 0.0       99.48     LegendNANA
01:00 11.0 4.3 63 0.0       99.34     LegendNANA
02:00 10.8 4.2 64 0.0       99.26     LegendNANA
03:00 10.6 5.1 69 0.0       99.18     LegendNANA
04:00 9.9 7.2 84 0.3       99.10     LegendNANA
05:00 9.5 7.4 86 0.3       99.06     LegendNANA
06:00 9.6 7.6 88 0.3       99.10     LegendNANA
07:00 9.8 8.3 90 0.3       99.08     LegendNANA
08:00 10.5 8.6 88 0.0       99.09     LegendNANA
09:00 11.7 9.3 86 0.0       99.07     LegendNANA
10:00 12.0 9.6 85 0.0       99.09     LegendNANA
11:00 11.8 8.9 82 0.0       99.14     LegendNANA
12:00 13.5 10.5 82 0.0       99.19     LegendNANA
13:00 16.2 10.4 68 0.0       99.19     LegendNANA
14:00 17.3 10.3 63 0.0       99.18     LegendNANA
15:00 19.4 10.2 55 0.0       99.11     LegendNANA
16:00 19.2 10.4 57 0.0       99.12     LegendNANA
17:00 18.8 10.1 57 0.0       99.15     LegendNANA
18:00 17.8 9.9 60 0.0       99.14     LegendNANA
19:00 17.3 11.7 70 0.0       99.21     LegendNANA
20:00 16.4 11.7 73 0.0       99.22     LegendNANA
21:00 16.1 11.8 76 0.0       99.22     LegendNANA
22:00 14.9 10.7 76 0.0       99.27     LegendNANA
23:00 13.8 10.2 79 0.0       99.23     LegendNANA

Notes on Data Quality.

Legend

  • E = Estimated
  • M = Missing
  • NA = Not Available*
  • [empty] = Indicates an unobserved value
Date modified: